Weather Data

Pearl Creek Farm: 8878 N Farm Road 75, Walnut Grove MO 65770

<== Previous Day (Sunday 27 Jan 2013) | Next Day (Tuesday 29 Jan 2013) ==>

Summary Precipitation Data For Monday 28 January 2013

ElementValueUnits
PrecipitationT
NotesI noticed a few drops of rain on the ground during the day yesterday. The gauge was bone dry. However, about 3 mi S of us and on into Spgfld, there had been recent rain, perhaps substantial (at least compared to almost nothing). It is eerily warm this morning (60s F) and thunderstorms are apparently on their way for tomorrow.
SourcePearl Creek Farm

Summary Temperature Data For Monday 28 January 2013

ElementValueUnits
High Temperature74 oF
Low Temperature54 oF
Average Temperature65 oF
High Humidity92 %
Low Humidity66 %
Average Humidity81 %
SourcePearl Creek Farm

Detail Temperature Data For Monday 28 January 2013

Date / TimeTemp (F)RH (%)Dew Pt (F)Report Date / TimeSource
2013-01-28 00:00:00 55 86 50.9 2013-05-04 11:51:29 Pearl Creek Farm
2013-01-28 00:30:00 55 87 51.1 2013-05-04 11:51:29 Pearl Creek Farm
2013-01-28 01:00:00 54 88 50.4 2013-05-04 11:51:29 Pearl Creek Farm
2013-01-28 01:30:00 54 89 50.7 2013-05-04 11:51:29 Pearl Creek Farm
2013-01-28 02:00:00 55 91 52.3 2013-05-04 11:51:29 Pearl Creek Farm
2013-01-28 02:30:00 56 90 53.1 2013-05-04 11:51:29 Pearl Creek Farm
2013-01-28 03:00:00 56 91 53.3 2013-05-04 11:51:29 Pearl Creek Farm
2013-01-28 03:30:00 58 92 55.5 2013-05-04 11:51:29 Pearl Creek Farm
2013-01-28 04:00:00 59 90 56.1 2013-05-04 11:51:29 Pearl Creek Farm
2013-01-28 04:30:00 59 90 56.1 2013-05-04 11:51:29 Pearl Creek Farm
2013-01-28 05:00:00 59 90 55.9 2013-05-04 11:51:29 Pearl Creek Farm
2013-01-28 05:30:00 60 90 56.9 2013-05-04 11:51:29 Pearl Creek Farm
2013-01-28 06:00:00 61 90 57.9 2013-05-04 11:51:29 Pearl Creek Farm
2013-01-28 06:30:00 61 89 57.7 2013-05-04 11:51:29 Pearl Creek Farm
2013-01-28 07:00:00 61 89 57.7 2013-05-04 11:51:29 Pearl Creek Farm
2013-01-28 07:30:00 62 89 58.7 2013-05-04 11:51:29 Pearl Creek Farm
2013-01-28 08:00:00 62 89 58.6 2013-05-04 11:51:29 Pearl Creek Farm
2013-01-28 08:30:00 63 88 59.4 2013-05-04 11:51:29 Pearl Creek Farm
2013-01-28 09:00:00 65 86 60.7 2013-05-04 11:51:29 Pearl Creek Farm
2013-01-28 09:30:00 67 84 61.8 2013-05-04 11:51:29 Pearl Creek Farm
2013-01-28 10:00:00 67 82 61.2 2013-05-04 11:51:29 Pearl Creek Farm
2013-01-28 10:30:00 68 81 61.8 2013-05-04 11:51:29 Pearl Creek Farm
2013-01-28 11:00:00 69 80 62.4 2013-05-04 11:51:29 Pearl Creek Farm
2013-01-28 11:30:00 69 78 61.9 2013-05-04 11:51:29 Pearl Creek Farm
2013-01-28 12:00:00 69 78 61.9 2013-05-04 11:51:29 Pearl Creek Farm
2013-01-28 12:30:00 70 76 62.1 2013-05-04 11:51:29 Pearl Creek Farm
2013-01-28 13:00:00 71 76 62.9 2013-05-04 11:51:29 Pearl Creek Farm
2013-01-28 13:30:00 71 73 61.9 2013-05-04 11:51:29 Pearl Creek Farm
2013-01-28 14:00:00 72 70 61.5 2013-05-04 11:51:29 Pearl Creek Farm
2013-01-28 14:30:00 73 68 61.8 2013-05-04 11:51:29 Pearl Creek Farm
2013-01-28 15:00:00 74 66 61.9 2013-05-04 11:51:29 Pearl Creek Farm
2013-01-28 15:30:00 74 66 61.9 2013-05-04 11:51:29 Pearl Creek Farm
2013-01-28 16:00:00 72 67 60.4 2013-05-04 11:51:29 Pearl Creek Farm
2013-01-28 16:30:00 71 68 59.9 2013-05-04 11:51:29 Pearl Creek Farm
2013-01-28 17:00:00 71 69 60.3 2013-05-04 11:51:29 Pearl Creek Farm
2013-01-28 17:30:00 70 71 60.0 2013-05-04 11:51:29 Pearl Creek Farm
2013-01-28 18:00:00 69 72 59.6 2013-05-04 11:51:29 Pearl Creek Farm
2013-01-28 18:30:00 68 73 59.0 2013-05-04 11:51:29 Pearl Creek Farm
2013-01-28 19:00:00 67 74 58.4 2013-05-04 11:51:29 Pearl Creek Farm
2013-01-28 19:30:00 67 76 59.2 2013-05-04 11:51:29 Pearl Creek Farm
2013-01-28 20:00:00 67 78 59.9 2013-05-04 11:51:29 Pearl Creek Farm
2013-01-28 20:30:00 66 79 59.1 2013-05-04 11:51:29 Pearl Creek Farm
2013-01-28 21:00:00 66 81 59.8 2013-05-04 11:51:29 Pearl Creek Farm
2013-01-28 21:30:00 65 81 58.9 2013-05-04 11:51:29 Pearl Creek Farm
2013-01-28 22:00:00 65 82 59.2 2013-05-04 11:51:29 Pearl Creek Farm
2013-01-28 22:30:00 65 84 59.9 2013-05-04 11:51:29 Pearl Creek Farm
2013-01-28 23:00:00 65 84 59.9 2013-05-04 11:51:29 Pearl Creek Farm
2013-01-28 23:30:00 65 84 60.0 2013-05-04 11:51:29 Pearl Creek Farm

A total of 48 rows are displayed.